Terug naar catalogus

ARIANE 1 DEB

LostGTO
NORAD 26685·DEBRIS·🇫🇷 France

Gelanceerd Jul 2, 1985 vanaf Guiana Space Centre

Loading…

TLE

VerouderdSource: Space-Track

Epoch: Sep 13, 2025, 01:39 UTC

1 26685U 85056K   25256.06914452 -.00000215  00000-0  00000-0 0  9991
2 26685   6.8882 195.7437 7028498 144.8699 292.8410  2.16232144 94808

Volg ARIANE 1 DEB in realtime met AllMySat

Download on the App Store